Flag for Sudan Weather past 2 weeks in Port Sudan, Sudan

Now
88 °F

Clear.


Feels Like: 98 °F
Forecast: 90 / 108 °F
Wind: 5 mph from South

Location: Jeddah King Abdul Aziz International Airport

Current Time: Aug 1, 2014 at 2:55:17 AM

Latest Report: Aug 1, 2014 at 2:00 AM


Visibility: 10 mi

Pressure: 29.62 "Hg

Humidity: 66%

Dew point: 75 °F

Location of Port SudanLocation

Historic Weather in Port Sudan — Graph

°F

Port Sudan temperature yesterday

Maximum temperature yesterday: 104 °F (at 3:00 PM)
Minimum temperature yesterday: 84 °F (at 5:00 AM)
Average temperature yesterday: 93 °F

Past Weeks' High & Low Weather Summary

 TemperatureHumidityPressure
High106 °F (Jul 18, 1:00 PM)84% (Jul 19, 5:00 AM)29.77 "Hg (Jul 19, 5:00 AM)
Low81 °F (Jul 22, 6:00 AM)19% (Jul 31, 3:00 PM)29.56 "Hg (Jul 30, 3:00 AM)
Average93 °F47%29.67 "Hg
* Reported Jul 17 1:00 AM — Aug 1 1:00 AM, Port Sudan, Weather by CustomWeather, © 2014

Note: Actual official high and low records may vary slightly from our data, if they occured in-between our weather recording intervals... More about our weather records

Advertising

Port Sudan weather history for previous 24 hours

 ConditionsComfort  
Time TempWeatherWind HumidityBarometerVisibility
1:00 AM
Aug 1
88 °FClear.5 mph66%29.65 "Hg10 mi
12:00 AM90 °FClear.5 mph63%29.65 "Hg10 mi
11:00 PM
Jul 31
90 °FClear.5 mph63%29.65 "Hg10 mi
10:00 PM90 °FClear.5 mph59%29.65 "Hg10 mi
9:00 PM91 °FClear.6 mph49%29.62 "Hg10 mi
8:00 PM95 °FClear.5 mph39%29.62 "Hg10 mi
7:00 PM95 °FSunny.6 mph36%29.59 "Hg10 mi
6:00 PM97 °FSunny.8 mph30%29.59 "Hg10 mi
5:00 PM100 °FSunny.10 mph27%29.62 "Hg10 mi
4:00 PM102 °FSunny.12 mph21%29.62 "Hg10 mi
3:00 PM104 °FSunny.13 mph19%29.62 "Hg10 mi
2:00 PM102 °FSunny.12 mph24%29.62 "Hg10 mi
1:00 PM102 °FSunny.7 mph27%29.65 "Hg10 mi
12:00 PM100 °FSunny.7 mph33%29.65 "Hg10 mi
11:00 AM99 °FSunny.5 mph33%29.68 "Hg10 mi
10:00 AM97 °FSunny.7 mph39%29.68 "Hg10 mi
9:00 AM91 °FSunny.5 mph46%29.68 "Hg10 mi
8:00 AM90 °FSunny.5 mph52%29.68 "Hg10 mi
7:00 AM84 °FSunny.No wind74%29.65 "Hg10 mi
6:00 AM84 °FSunny.5 mph70%29.65 "Hg10 mi
5:00 AM84 °FClear.No wind70%29.62 "Hg10 mi
4:00 AM86 °FClear.No wind66%29.62 "Hg10 mi
3:00 AM86 °FClear.No wind70%29.62 "Hg10 mi
2:00 AM86 °FClear.No wind66%29.62 "Hg10 mi
Weather by CustomWeather, © 2014

See weather overviewHow to use our weather pages